SCP
0 0 0 0 0 0 -0 0 -0 -0 0 0 0 0 0 0 0 0 0 0 0 0 0 0 0 0 0 0 0 0 0 0
0 0 0 0 0 -0 -0 -0 -0 0 0 0 0 0 0 0 0 0 0 0 0 0 0 0 0 0 0 0 0 0 0 0
0 0 0 0 -0 -0 -0 0 0 0 -0 -0 0 0 0 0 0 0 0 0 0 0 0 0 0 0 0 0 0 0 0 0
0 0 0 0 0 -0 0 -0 0 0 0 0 0 0 0 0 0 0 0 0 0 0 0 0 0 0 0 0 0 0 0 0
0 0 0 0 0 0 0 0 0 0 0 0 0 0 0 0 0 0 0 0 0 0 0 0 0 0 0 0 0 0 0 0
0 0 0 0 0 0 0 0 0 0 0 0 0 0 0 0 0 0 0 0 0 0 0 0 0 0 0 0 0 0 0 0
0 0 0 0 0 0 0 0 0 0 0 0 0 0 0 0 0 0 0 0 0 0 0 0 0 0 0 0 0 0 0 0
0 0 0 0 0 0 0 0 0 0 0 0 0 0 0 0 0 0 0 0 0 0 0 0 0 0 0 0 0 0 0 0
0 0 0 0 0 0 0 0 0 0 0 0 0 0 0 0 0 0 0 0 0 0 0 0 0 0 0 0 0 0 0 0
0 0 0 0 0 0 0 0 0 0 0 0 0 0 0 0 0 0 0 0 0 0 0 0 0 0 0 0 -0 -0 -0 -0
-0 -0 -0 -0 0 0 0 0 0 0 0 0 0 0 0 0 0 0 0 0 0 0 0 0 -0 -0 -0 -0 0 0 0 0
0 0 0 0 0 0 0 0 0 0 0 0 0 0 0 0 0 0 0 -0 -0 0 0 -0 -0 -0 -0 -0 0 0 0 0
0 0 0 0 0 0 0 0 0 0 0 0 0 0 0 0 0 0 -0 -0 -0 -0 -0 -0 -0 0 0 0 0 0 0 0
0 0 0 0 0 0 0 0 0 0 0 0 0 0 0 0 0 -0 -0 0 0 0 0 0 0 0 0 0 0 0 0 0
0 0 0 0 0 0 0 0 0 0 0 -0 -0 -0 -0 -0 -0 -0 -0 -0 -0 -0 0 0 0 0 0 0 0 0 0 0
0 0 0 0 0 0 0 0 0 0 0 0 0 0 -0 -0 -0 -0 0 0 0 0 0 0 0 0 0 0 0 0 0 0
0 0 0 0 0 0 0 0 0 0 0 0 0 0 0 0 0 0 0 0 0 0 0 0 0 0 0 0 0 0 0 0
0 0 0 0 0 0 0 0 0 0 0 0 0 0 0 0 0 0 0 0 0 0 0 0 0 0 0 0 0 0 0 0
0 0 0 0 0 0 0 0 0 0 0 0 0 0 0 0 0 0 0 0 0 0 0 0 0 0 0 0 0 0 0 0
0 0 0 0 0 0 0 0 0 0 0 0 0 0 0 0 0 0 0 0 0 0 0 0 0 0 0 0 0 0 0 0
Wind_Speed_500mb
33 34 32 31 31 29 33 29 25 19 11 4 9 15 17 20 20 19 14 12 15 19 22 22 24 27 30 27 36 43 43 47
29 25 27 26 28 29 29 26 21 16 11 4 3 8 12 15 16 15 17 18 19 20 21 22 20 23 24 25 25 26 27 24
21 23 22 24 26 28 26 23 18 16 13 10 7 4 6 9 12 14 17 19 20 22 26 28 28 28 28 28 30 27 31 38
18 21 20 21 23 23 22 19 16 15 16 16 16 13 13 15 16 17 20 28 32 35 36 40 44 47 48 46 48 51 53 49
14 17 20 20 20 21 19 19 19 20 23 29 30 29 29 30 31 33 37 45 52 55 57 57 56 54 53 50 50 50 47 46
13 16 18 19 19 20 21 24 27 31 36 42 44 46 49 54 57 61 62 63 64 67 68 64 61 57 54 52 51 47 47 46
12 16 21 22 23 25 28 32 36 45 49 49 53 57 61 61 63 67 70 69 65 64 62 62 62 53 50 49 50 47 43 41
14 18 17 22 23 29 31 34 41 45 46 49 54 58 58 59 61 62 62 59 59 59 54 54 53 45 41 38 37 36 34 33
17 19 23 25 28 34 35 37 37 41 41 42 44 48 49 50 52 53 53 52 50 47 45 45 47 38 34 32 31 29 28 26
25 29 33 32 34 31 31 31 32 34 36 37 37 37 38 41 41 40 40 41 40 38 36 33 35 32 28 24 23 21 20 18
33 31 30 26 28 25 26 28 29 31 33 33 31 29 28 30 29 30 29 30 31 30 28 27 26 25 22 19 17 15 13 12
32 28 27 25 22 20 21 23 25 26 25 25 24 21 21 22 23 22 22 22 22 20 20 17 16 14 13 12 10 8 9 9
34 30 28 27 26 25 25 23 23 23 23 22 21 20 19 19 18 18 17 16 13 12 11 10 8 7 6 5 4 4 5 7
35 33 31 30 29 28 26 24 23 22 20 19 17 14 12 11 10 8 6 4 2 2 1 1 3 4 5 6 8 9 10 12
42 40 37 35 33 32 30 28 26 24 21 19 16 14 13 11 9 8 8 8 9 9 10 10 11 12 15 17 20 22 24 24
48 44 42 41 40 38 35 33 30 28 25 23 20 19 18 17 17 16 17 17 17 17 19 21 21 23 25 27 28 30 32 31
54 51 48 48 45 44 41 38 36 34 31 28 25 24 24 25 25 26 26 26 27 27 27 28 29 31 33 35 37 39 42 51
59 54 53 52 50 48 46 44 42 39 37 36 36 35 35 35 35 34 33 34 35 35 36 37 36 39 40 42 47 51 53 58
60 58 57 57 55 52 51 50 48 46 44 44 42 42 42 42 40 41 42 43 43 42 44 44 46 47 47 48 53 61 61 66
60 61 62 63 60 57 58 58 56 54 52 50 50 50 50 49 50 50 51 52 52 50 52 49 50 54 57 56 62 67 72 76
Wind_Direction_500mb
323 325 332 339 342 342 335 339 339 332 320 305 198 215 218 227 236 236 230 221 222 215 218 214 218 216 209 212 231 224 222 228
320 332 344 349 347 345 345 353 358 360 4 30 146 185 197 215 218 224 218 207 200 189 185 177 184 184 188 212 193 203 195 189
324 347 357 359 354 356 359 3 14 29 39 53 69 110 173 191 194 188 179 164 157 153 153 151 146 150 152 160 152 152 136 130
348 355 4 9 11 15 15 19 34 51 73 85 93 109 130 140 138 134 132 131 128 130 130 130 129 131 132 131 130 129 125 125
358 4 15 20 27 29 38 47 63 76 91 97 102 108 114 117 118 118 118 118 116 115 114 114 114 112 112 114 113 110 108 108
13 28 35 36 43 50 59 72 81 88 94 96 100 104 109 112 113 113 114 114 114 115 113 108 106 105 104 103 102 105 112 115
44 65 65 56 64 73 82 91 96 100 99 102 106 106 107 109 112 114 110 108 109 110 114 117 114 115 116 117 118 118 116 114
94 81 78 79 82 89 95 103 105 106 109 111 110 110 110 112 111 110 112 115 118 119 119 115 110 112 112 110 110 109 107 104
128 118 109 106 101 100 100 98 101 107 107 103 107 111 114 114 113 114 116 117 116 114 115 115 110 110 107 103 99 96 95 94
124 116 114 113 108 109 110 113 113 109 109 109 111 113 114 114 114 115 115 114 113 111 108 107 104 104 102 100 96 93 89 88
134 131 128 127 120 123 125 124 122 120 121 121 121 122 122 117 115 110 109 109 109 111 112 113 113 114 114 112 109 102 94 82
154 151 147 145 144 147 143 139 137 135 131 129 129 125 121 118 117 117 116 112 112 109 105 99 93 88 81 77 72 65 51 31
172 170 168 168 171 172 168 164 159 154 151 150 148 146 143 139 139 138 135 131 124 119 113 105 92 75 56 43 6 353 326 316
185 185 186 187 188 187 183 181 180 179 177 172 168 168 169 172 171 164 147 122 105 99 111 226 236 245 256 267 289 298 299 309
198 199 200 200 201 200 200 197 198 200 200 200 205 211 216 221 226 232 242 251 259 265 269 274 281 291 302 312 317 319 319 318
209 208 208 210 210 212 211 212 212 213 219 223 226 231 237 243 248 256 260 264 271 282 289 292 295 297 297 295 292 289 286 280
216 216 214 215 216 218 219 222 224 225 228 235 243 248 252 256 260 262 265 268 270 270 273 275 278 281 278 284 290 294 298 299
222 222 221 223 224 225 227 229 231 233 233 235 238 241 245 251 255 258 263 265 269 273 276 277 276 277 284 288 291 291 291 290
226 226 227 229 230 231 233 235 236 239 241 244 247 250 253 256 261 266 269 273 274 275 276 278 281 282 281 283 285 286 286 288
233 233 232 234 235 234 236 239 241 242 244 248 251 253 256 260 263 266 269 272 276 275 273 277 280 282 283 284 280 285 288 291
Wind_Speed_850mb
33 34 32 31 31 29 33 29 25 19 11 4 9 15 17 20 20 19 14 12 15 19 22 22 24 27 30 27 36 43 43 47
29 25 27 26 28 29 29 26 21 16 11 4 3 8 12 15 16 15 17 18 19 20 21 22 20 23 24 25 25 26 27 24
21 23 22 24 26 28 26 23 18 16 13 10 7 4 6 9 12 14 17 19 20 22 26 28 28 28 28 28 30 27 31 38
18 21 20 21 23 23 22 19 16 15 16 16 16 13 13 15 16 17 20 28 32 35 36 40 44 47 48 46 48 51 53 49
14 17 20 20 20 21 19 19 19 20 23 29 30 29 29 30 31 33 37 45 52 55 57 57 56 54 53 50 50 50 47 46
13 16 18 19 19 20 21 24 27 31 36 42 44 46 49 54 57 61 62 63 64 67 68 64 61 57 54 52 51 47 47 46
12 16 21 22 23 25 28 32 36 45 49 49 53 57 61 61 63 67 70 69 65 64 62 62 62 53 50 49 50 47 43 41
14 18 17 22 23 29 31 34 41 45 46 49 54 58 58 59 61 62 62 59 59 59 54 54 53 45 41 38 37 36 34 33
17 19 23 25 28 34 35 37 37 41 41 42 44 48 49 50 52 53 53 52 50 47 45 45 47 38 34 32 31 29 28 26
25 29 33 32 34 31 31 31 32 34 36 37 37 37 38 41 41 40 40 41 40 38 36 33 35 32 28 24 23 21 20 18
33 31 30 26 28 25 26 28 29 31 33 33 31 29 28 30 29 30 29 30 31 30 28 27 26 25 22 19 17 15 13 12
32 28 27 25 22 20 21 23 25 26 25 25 24 21 21 22 23 22 22 22 22 20 20 17 16 14 13 12 10 8 9 9
34 30 28 27 26 25 25 23 23 23 23 22 21 20 19 19 18 18 17 16 13 12 11 10 8 7 6 5 4 4 5 7
35 33 31 30 29 28 26 24 23 22 20 19 17 14 12 11 10 8 6 4 2 2 1 1 3 4 5 6 8 9 10 12
42 40 37 35 33 32 30 28 26 24 21 19 16 14 13 11 9 8 8 8 9 9 10 10 11 12 15 17 20 22 24 24
48 44 42 41 40 38 35 33 30 28 25 23 20 19 18 17 17 16 17 17 17 17 19 21 21 23 25 27 28 30 32 31
54 51 48 48 45 44 41 38 36 34 31 28 25 24 24 25 25 26 26 26 27 27 27 28 29 31 33 35 37 39 42 51
59 54 53 52 50 48 46 44 42 39 37 36 36 35 35 35 35 34 33 34 35 35 36 37 36 39 40 42 47 51 53 58
60 58 57 57 55 52 51 50 48 46 44 44 42 42 42 42 40 41 42 43 43 42 44 44 46 47 47 48 53 61 61 66
60 61 62 63 60 57 58 58 56 54 52 50 50 50 50 49 50 50 51 52 52 50 52 49 50 54 57 56 62 67 72 76
Wind_Direction_850mb
323 325 332 339 342 342 335 339 339 332 320 305 198 215 218 227 236 236 230 221 222 215 218 214 218 216 209 212 231 224 222 228
320 332 344 349 347 345 345 353 358 360 4 30 146 185 197 215 218 224 218 207 200 189 185 177 184 184 188 212 193 203 195 189
324 347 357 359 354 356 359 3 14 29 39 53 69 110 173 191 194 188 179 164 157 153 153 151 146 150 152 160 152 152 136 130
348 355 4 9 11 15 15 19 34 51 73 85 93 109 130 140 138 134 132 131 128 130 130 130 129 131 132 131 130 129 125 125
358 4 15 20 27 29 38 47 63 76 91 97 102 108 114 117 118 118 118 118 116 115 114 114 114 112 112 114 113 110 108 108
13 28 35 36 43 50 59 72 81 88 94 96 100 104 109 112 113 113 114 114 114 115 113 108 106 105 104 103 102 105 112 115
44 65 65 56 64 73 82 91 96 100 99 102 106 106 107 109 112 114 110 108 109 110 114 117 114 115 116 117 118 118 116 114
94 81 78 79 82 89 95 103 105 106 109 111 110 110 110 112 111 110 112 115 118 119 119 115 110 112 112 110 110 109 107 104
128 118 109 106 101 100 100 98 101 107 107 103 107 111 114 114 113 114 116 117 116 114 115 115 110 110 107 103 99 96 95 94
124 116 114 113 108 109 110 113 113 109 109 109 111 113 114 114 114 115 115 114 113 111 108 107 104 104 102 100 96 93 89 88
134 131 128 127 120 123 125 124 122 120 121 121 121 122 122 117 115 110 109 109 109 111 112 113 113 114 114 112 109 102 94 82
154 151 147 145 144 147 143 139 137 135 131 129 129 125 121 118 117 117 116 112 112 109 105 99 93 88 81 77 72 65 51 31
172 170 168 168 171 172 168 164 159 154 151 150 148 146 143 139 139 138 135 131 124 119 113 105 92 75 56 43 6 353 326 316
185 185 186 187 188 187 183 181 180 179 177 172 168 168 169 172 171 164 147 122 105 99 111 226 236 245 256 267 289 298 299 309
198 199 200 200 201 200 200 197 198 200 200 200 205 211 216 221 226 232 242 251 259 265 269 274 281 291 302 312 317 319 319 318
209 208 208 210 210 212 211 212 212 213 219 223 226 231 237 243 248 256 260 264 271 282 289 292 295 297 297 295 292 289 286 280
216 216 214 215 216 218 219 222 224 225 228 235 243 248 252 256 260 262 265 268 270 270 273 275 278 281 278 284 290 294 298 299
222 222 221 223 224 225 227 229 231 233 233 235 238 241 245 251 255 258 263 265 269 273 276 277 276 277 284 288 291 291 291 290
226 226 227 229 230 231 233 235 236 239 241 244 247 250 253 256 261 266 269 273 274 275 276 278 281 282 281 283 285 286 286 288
233 233 232 234 235 234 236 239 241 242 244 248 251 253 256 260 263 266 269 272 276 275 273 277 280 282 283 284 280 285 288 291